Retour au catalogue

STARLINK-3584

ActifCommunicationsVLEO
NORAD 51885·PAYLOAD·🇺🇸 United States

Lancé Mar 3, 2022 depuis Cape Canaveral Space Force Station

Loading…

Prochains Passages (prochaines 24 heures)

TLE

FraisSource: CelesTrak SupGP

Époque: Sep 15, 2026, 02:01 UTC

1 51885C 22022AK  26258.08451389 -.00020865  00000+0 -63319-3 0  2581
2 51885  53.1573 215.1803 0001288  88.1735 192.7916 15.33555526    10

Suivez STARLINK-3584 en temps réel avec AllMySat

Download on the App Store